Time,TemperatureF,DewpointF,PressureIn,WindDirection,WindDirectionDegrees,WindSpeedMPH,WindSpeedGustMPH,Humidity,HourlyPrecipIn,Conditions,Clouds,dailyrainin,SoftwareType,DateUTC
2013-01-07 00:00:00,43.9,43.9,-100.00,SW,223,4.0,8.0,-999,0.00,,,0.05,VWS V14.01,2013-01-07 08:00:00,
2013-01-07 00:05:00,44.5,44.5,-100.00,SSW,204,4.0,8.0,-999,0.00,,,0.00,VWS V14.01,2013-01-07 08:05:00,
2013-01-07 00:10:00,44.6,44.6,-100.00,SSW,197,6.0,10.0,-999,0.00,,,0.00,VWS V14.01,2013-01-07 08:10:00,
2013-01-07 00:15:00,45.2,45.2,-100.00,NW,306,2.0,10.0,-999,0.00,,,0.00,VWS V14.01,2013-01-07 08:15:00,
2013-01-07 00:20:00,45.0,45.0,-100.00,WSW,246,2.0,10.0,-999,0.00,,,0.00,VWS V14.01,2013-01-07 08:20:00,
2013-01-07 00:25:00,44.3,44.3,-100.00,WSW,243,6.0,10.0,-999,0.00,,,0.00,VWS V14.01,2013-01-07 08:25:00,
2013-01-07 00:30:00,43.9,43.9,-100.00,WSW,248,1.0,4.0,-999,0.00,,,0.00,VWS V14.01,2013-01-07 08:30:00,
2013-01-07 00:35:00,44.0,44.0,-100.00,WSW,248,4.0,6.0,-999,0.00,,,0.00,VWS V14.01,2013-01-07 08:35:00,
2013-01-07 00:40:00,43.9,43.9,-100.00,WSW,243,3.0,7.0,-999,0.00,,,0.00,VWS V14.01,2013-01-07 08:40:00,
2013-01-07 00:45:00,43.7,43.7,-100.00,WSW,244,4.0,7.0,-999,0.00,,,0.00,VWS V14.01,2013-01-07 08:45:00,
2013-01-07 00:50:00,43.9,43.9,-100.00,WSW,244,4.0,7.0,-999,0.00,,,0.00,VWS V14.01,2013-01-07 08:50:00,
2013-01-07 00:55:00,44.3,44.3,-100.00,West,266,4.0,8.0,-999,0.00,,,0.00,VWS V14.01,2013-01-07 08:55:00,
2013-01-07 01:00:00,44.2,44.2,-100.00,West,268,3.0,5.0,-999,0.00,,,0.00,VWS V14.01,2013-01-07 09:00:00,
2013-01-07 01:05:00,44.6,44.6,-100.00,West,268,4.0,6.0,-999,0.00,,,0.00,VWS V14.01,2013-01-07 09:05:00,
2013-01-07 01:10:00,44.4,44.4,-100.00,SW,233,5.0,7.0,-999,0.00,,,0.00,VWS V14.01,2013-01-07 09:10:00,
2013-01-07 01:15:00,44.2,44.2,-100.00,WSW,248,4.0,7.0,-999,0.00,,,0.00,VWS V14.01,2013-01-07 09:15:00,
2013-01-07 01:20:00,44.4,44.4,-100.00,SW,222,4.0,8.0,-999,0.00,,,0.00,VWS V14.01,2013-01-07 09:20:00,
2013-01-07 01:26:00,43.7,43.7,-100.00,SW,228,4.0,8.0,-999,0.00,,,0.00,VWS V14.01,2013-01-07 09:26:00,
2013-01-07 01:31:00,42.8,42.8,-100.00,South,191,3.0,8.0,-999,0.00,,,0.00,VWS V14.01,2013-01-07 09:31:00,
2013-01-07 01:36:00,42.2,42.2,-100.00,South,191,1.0,8.0,-999,0.00,,,0.00,VWS V14.01,2013-01-07 09:36:00,
2013-01-07 01:41:00,41.8,41.8,-100.00,South,191,3.0,8.0,-999,0.00,,,0.00,VWS V14.01,2013-01-07 09:41:00,
2013-01-07 01:46:00,42.1,42.1,-100.00,South,191,3.0,8.0,-999,0.00,,,0.00,VWS V14.01,2013-01-07 09:46:00,
2013-01-07 01:51:00,41.5,41.5,-100.00,South,191,0.0,8.0,-999,0.00,,,0.00,VWS V14.01,2013-01-07 09:51:00,
2013-01-07 01:56:00,42.1,42.1,-100.00,SSW,192,0.0,8.0,-999,0.00,,,0.00,VWS V14.01,2013-01-07 09:56:00,
2013-01-07 02:01:00,42.7,42.7,-100.00,SW,219,5.0,6.0,-999,0.00,,,0.00,VWS V14.01,2013-01-07 10:01:00,
2013-01-07 02:06:00,43.5,43.5,-100.00,SW,223,5.0,8.0,-999,0.00,,,0.00,VWS V14.01,2013-01-07 10:06:00,
2013-01-07 02:11:00,41.7,41.7,-100.00,SSW,202,5.0,10.0,-999,0.00,,,0.00,VWS V14.01,2013-01-07 10:11:00,
2013-01-07 02:16:00,43.5,43.5,-100.00,WSW,253,5.0,10.0,-999,0.00,,,0.00,VWS V14.01,2013-01-07 10:16:00,
2013-01-07 02:21:00,43.6,43.6,-100.00,WSW,252,4.0,10.0,-999,0.00,,,0.00,VWS V14.01,2013-01-07 10:21:00,
2013-01-07 02:26:00,44.0,44.0,-100.00,SW,214,4.0,10.0,-999,0.00,,,0.00,VWS V14.01,2013-01-07 10:26:00,
2013-01-07 02:31:00,43.8,43.8,-100.00,SW,234,6.0,7.0,-999,0.00,,,0.00,VWS V14.01,2013-01-07 10:31:00,
2013-01-07 02:36:00,43.3,43.3,-100.00,SW,221,5.0,8.0,-999,0.00,,,0.00,VWS V14.01,2013-01-07 10:36:00,
2013-01-07 02:41:00,43.4,43.4,-100.00,SSW,211,4.0,8.0,-999,0.00,,,0.00,VWS V14.01,2013-01-07 10:41:00,
2013-01-07 02:46:00,43.1,43.1,-100.00,SSW,211,5.0,8.0,-999,0.00,,,0.00,VWS V14.01,2013-01-07 10:46:00,
2013-01-07 02:51:00,43.3,43.3,-100.00,South,189,5.0,9.0,-999,0.00,,,0.00,VWS V14.01,2013-01-07 10:51:00,
2013-01-07 02:56:00,43.0,43.0,-100.00,SSW,197,4.0,9.0,-999,0.00,,,0.00,VWS V14.01,2013-01-07 10:56:00,
2013-01-07 03:01:00,42.3,42.3,-100.00,SSW,198,3.0,5.0,-999,0.00,,,0.00,VWS V14.01,2013-01-07 11:01:00,
2013-01-07 03:06:00,42.3,42.3,-100.00,SSW,198,3.0,5.0,-999,0.00,,,0.00,VWS V14.01,2013-01-07 11:06:00,
2013-01-07 03:11:00,41.8,41.8,-100.00,SSW,197,4.0,5.0,-999,0.00,,,0.00,VWS V14.01,2013-01-07 11:11:00,
2013-01-07 03:16:00,42.1,42.1,-100.00,SSW,198,5.0,5.0,-999,0.00,,,0.00,VWS V14.01,2013-01-07 11:16:00,
2013-01-07 03:21:00,41.4,41.4,-100.00,SSW,198,3.0,5.0,-999,0.00,,,0.00,VWS V14.01,2013-01-07 11:21:00,
2013-01-07 03:26:00,41.6,41.6,-100.00,SSW,198,3.0,5.0,-999,0.00,,,0.00,VWS V14.01,2013-01-07 11:26:00,
2013-01-07 03:31:00,42.8,42.8,-100.00,SSW,198,4.0,5.0,-999,0.00,,,0.00,VWS V14.01,2013-01-07 11:31:00,
2013-01-07 03:36:00,43.4,43.4,-100.00,SSW,200,6.0,8.0,-999,0.00,,,0.00,VWS V14.01,2013-01-07 11:36:00,
2013-01-07 03:41:00,43.6,43.6,-100.00,SW,215,3.0,8.0,-999,0.00,,,0.00,VWS V14.01,2013-01-07 11:41:00,
2013-01-07 03:46:00,44.5,44.5,-100.00,SW,229,5.0,10.0,-999,0.00,,,0.00,VWS V14.01,2013-01-07 11:46:00,
2013-01-07 03:51:00,44.5,44.5,-100.00,WSW,248,3.0,10.0,-999,0.00,,,0.00,VWS V14.01,2013-01-07 11:51:00,
2013-01-07 03:56:00,43.4,43.4,-100.00,WSW,241,6.0,10.0,-999,0.00,,,0.00,VWS V14.01,2013-01-07 11:56:00,
2013-01-07 04:01:00,43.2,43.2,-100.00,SW,225,6.0,8.0,-999,0.00,,,0.00,VWS V14.01,2013-01-07 12:01:00,
2013-01-07 04:06:00,43.6,43.6,-100.00,WSW,243,5.0,8.0,-999,0.00,,,0.00,VWS V14.01,2013-01-07 12:06:00,
2013-01-07 04:11:00,43.8,43.8,-100.00,SW,231,9.0,11.0,-999,0.00,,,0.00,VWS V14.01,2013-01-07 12:11:00,
2013-01-07 04:16:00,45.0,45.0,-100.00,SSW,204,7.0,11.0,-999,0.00,,,0.00,VWS V14.01,2013-01-07 12:16:00,
2013-01-07 04:21:00,44.4,44.4,-100.00,SSW,213,6.0,11.0,-999,0.00,,,0.00,VWS V14.01,2013-01-07 12:21:00,
2013-01-07 04:27:00,44.0,44.0,-100.00,SW,223,2.0,11.0,-999,0.00,,,0.00,VWS V14.01,2013-01-07 12:27:00,
2013-01-07 04:32:00,43.0,43.0,-100.00,SSW,213,5.0,7.0,-999,0.00,,,0.00,VWS V14.01,2013-01-07 12:32:00,
2013-01-07 04:38:00,43.4,43.4,-100.00,SSW,213,2.0,7.0,-999,0.00,,,0.00,VWS V14.01,2013-01-07 12:38:00,
2013-01-07 04:43:00,41.5,41.5,-100.00,SSW,213,2.0,7.0,-999,0.00,,,0.00,VWS V14.01,2013-01-07 12:43:00,
2013-01-07 04:48:00,41.2,41.2,-100.00,SSW,213,3.0,7.0,-999,0.00,,,0.00,VWS V14.01,2013-01-07 12:48:00,
2013-01-07 04:54:00,43.6,43.6,-100.00,SW,232,5.0,8.0,-999,0.00,,,0.00,VWS V14.01,2013-01-07 12:54:00,
2013-01-07 04:59:00,43.4,43.4,-100.00,SW,228,5.0,8.0,-999,0.00,,,0.00,VWS V14.01,2013-01-07 12:59:00,
2013-01-07 05:05:00,43.8,43.8,-100.00,SW,228,2.0,6.0,-999,0.00,,,0.00,VWS V14.01,2013-01-07 13:05:00,
2013-01-07 05:10:00,42.9,42.9,-100.00,SW,228,2.0,7.0,-999,0.00,,,0.00,VWS V14.01,2013-01-07 13:10:00,
2013-01-07 05:17:00,41.7,41.7,-100.00,SW,228,1.0,7.0,-999,0.00,,,0.00,VWS V14.01,2013-01-07 13:17:00,
2013-01-07 05:22:00,41.4,41.4,-100.00,SW,228,1.0,7.0,-999,0.00,,,0.00,VWS V14.01,2013-01-07 13:22:00,
2013-01-07 05:27:00,41.1,41.1,-100.00,SW,228,3.0,7.0,-999,0.00,,,0.00,VWS V14.01,2013-01-07 13:27:00,
2013-01-07 05:32:00,43.9,43.9,-100.00,WSW,238,3.0,5.0,-999,0.00,,,0.00,VWS V14.01,2013-01-07 13:32:00,
2013-01-07 05:37:00,45.3,45.3,-100.00,WSW,238,5.0,6.0,-999,0.00,,,0.00,VWS V14.01,2013-01-07 13:37:00,
2013-01-07 05:42:00,44.4,44.4,-100.00,SW,221,3.0,8.0,-999,0.00,,,0.00,VWS V14.01,2013-01-07 13:42:00,
2013-01-07 05:47:00,43.1,43.1,-100.00,SW,221,3.0,8.0,-999,0.00,,,0.00,VWS V14.01,2013-01-07 13:47:00,
2013-01-07 05:52:00,42.5,42.5,-100.00,SW,221,4.0,8.0,-999,0.00,,,0.00,VWS V14.01,2013-01-07 13:52:00,
2013-01-07 05:57:00,43.5,43.5,-100.00,SW,221,3.0,8.0,-999,0.00,,,0.00,VWS V14.01,2013-01-07 13:57:00,
2013-01-07 06:02:00,42.6,42.6,-100.00,SW,221,1.0,3.0,-999,0.00,,,0.00,VWS V14.01,2013-01-07 14:02:00,
2013-01-07 06:07:00,43.4,43.4,-100.00,SW,221,1.0,4.0,-999,0.00,,,0.00,VWS V14.01,2013-01-07 14:07:00,
2013-01-07 06:12:00,43.9,43.9,-100.00,SW,221,2.0,4.0,-999,0.00,,,0.00,VWS V14.01,2013-01-07 14:12:00,
2013-01-07 06:17:00,43.8,43.8,-100.00,SW,221,1.0,4.0,-999,0.00,,,0.00,VWS V14.01,2013-01-07 14:17:00,
2013-01-07 06:22:00,42.9,42.9,-100.00,SW,221,2.0,4.0,-999,0.00,,,0.00,VWS V14.01,2013-01-07 14:22:00,
2013-01-07 06:27:00,41.8,41.8,-100.00,SW,220,4.0,6.0,-999,0.00,,,0.00,VWS V14.01,2013-01-07 14:27:00,
2013-01-07 06:32:00,44.9,44.9,-100.00,SW,221,5.0,7.0,-999,0.00,,,0.00,VWS V14.01,2013-01-07 14:32:00,
2013-01-07 06:37:00,46.0,46.0,-100.00,SW,236,5.0,10.0,-999,0.00,,,0.00,VWS V14.01,2013-01-07 14:37:00,
2013-01-07 06:42:00,46.8,46.8,-100.00,SW,235,4.0,10.0,-999,0.00,,,0.00,VWS V14.01,2013-01-07 14:42:00,
2013-01-07 06:47:00,45.4,45.4,-100.00,SW,235,4.0,10.0,-999,0.00,,,0.00,VWS V14.01,2013-01-07 14:47:00,
2013-01-07 06:52:00,44.6,44.6,-100.00,SW,235,2.0,10.0,-999,0.00,,,0.00,VWS V14.01,2013-01-07 14:52:00,
2013-01-07 06:57:00,46.4,46.4,-100.00,WSW,250,2.0,10.0,-999,0.00,,,0.00,VWS V14.01,2013-01-07 14:57:00,
2013-01-07 07:02:00,44.6,44.6,-100.00,WSW,250,4.0,4.0,-999,0.00,,,0.00,VWS V14.01,2013-01-07 15:02:00,
2013-01-07 07:07:00,45.2,45.2,-100.00,WSW,250,2.0,5.0,-999,0.00,,,0.00,VWS V14.01,2013-01-07 15:07:00,
2013-01-07 07:12:00,44.5,44.5,-100.00,WSW,250,3.0,5.0,-999,0.00,,,0.00,VWS V14.01,2013-01-07 15:12:00,
2013-01-07 07:17:00,45.0,45.0,-100.00,WSW,246,6.0,8.0,-999,0.00,,,0.00,VWS V14.01,2013-01-07 15:17:00,
2013-01-07 07:22:00,46.7,46.7,-100.00,SSW,193,3.0,8.0,-999,0.00,,,0.00,VWS V14.01,2013-01-07 15:22:00,
2013-01-07 07:27:00,47.7,47.7,-100.00,WNW,289,3.0,8.0,-999,0.00,,,0.00,VWS V14.01,2013-01-07 15:27:00,
2013-01-07 07:32:00,46.9,46.9,-100.00,WSW,240,2.0,4.0,-999,0.00,,,0.00,VWS V14.01,2013-01-07 15:32:00,
2013-01-07 07:37:00,46.9,46.9,-100.00,WSW,240,1.0,4.0,-999,0.00,,,0.00,VWS V14.01,2013-01-07 15:37:00,
2013-01-07 07:42:00,47.6,47.6,-100.00,WSW,242,2.0,6.0,-999,0.00,,,0.00,VWS V14.01,2013-01-07 15:42:00,
2013-01-07 07:47:00,48.0,48.0,-100.00,WSW,242,5.0,6.0,-999,0.00,,,0.00,VWS V14.01,2013-01-07 15:47:00,
2013-01-07 07:52:00,47.8,47.8,-100.00,SSW,209,1.0,10.0,-999,0.00,,,0.00,VWS V14.01,2013-01-07 15:52:00,
2013-01-07 07:58:00,47.5,47.5,-100.00,WSW,243,4.0,10.0,-999,0.00,,,0.00,VWS V14.01,2013-01-07 15:58:00,
2013-01-07 08:03:00,47.3,47.3,-100.00,SW,220,5.0,7.0,-999,0.00,,,0.00,VWS V14.01,2013-01-07 16:03:00,
2013-01-07 08:08:00,48.4,48.4,-100.00,WSW,238,8.0,10.0,-999,0.00,,,0.00,VWS V14.01,2013-01-07 16:08:00,
2013-01-07 08:13:00,48.6,48.6,-100.00,WSW,242,5.0,11.0,-999,0.00,,,0.00,VWS V14.01,2013-01-07 16:13:00,
2013-01-07 08:18:00,49.1,49.1,-100.00,West,260,4.0,11.0,-999,0.00,,,0.00,VWS V14.01,2013-01-07 16:18:00,
2013-01-07 08:23:00,48.9,48.9,-100.00,West,260,2.0,11.0,-999,0.00,,,0.00,VWS V14.01,2013-01-07 16:23:00,
2013-01-07 08:28:00,48.6,48.6,-100.00,West,260,1.0,11.0,-999,0.00,,,0.00,VWS V14.01,2013-01-07 16:28:00,
2013-01-07 08:33:00,48.9,48.9,-100.00,West,260,2.0,3.0,-999,0.00,,,0.00,VWS V14.01,2013-01-07 16:33:00,
2013-01-07 08:38:00,49.0,49.0,-100.00,West,260,4.0,6.0,-999,0.00,,,0.00,VWS V14.01,2013-01-07 16:38:00,
2013-01-07 08:43:00,49.2,49.2,-100.00,SW,220,5.0,7.0,-999,0.00,,,0.00,VWS V14.01,2013-01-07 16:43:00,
2013-01-07 08:48:00,49.4,49.4,-100.00,West,264,3.0,7.0,-999,0.00,,,0.00,VWS V14.01,2013-01-07 16:48:00,
2013-01-07 08:53:00,49.4,49.4,-100.00,West,264,1.0,7.0,-999,0.00,,,0.00,VWS V14.01,2013-01-07 16:53:00,
2013-01-07 08:59:00,49.9,49.9,-100.00,West,264,3.0,7.0,-999,0.00,,,0.00,VWS V14.01,2013-01-07 16:59:00,
2013-01-07 09:04:00,50.1,50.1,-100.00,West,264,3.0,4.0,-999,0.00,,,0.00,VWS V14.01,2013-01-07 17:04:00,
2013-01-07 09:09:00,50.2,50.2,-100.00,West,264,4.0,6.0,-999,0.00,,,0.00,VWS V14.01,2013-01-07 17:09:00,
2013-01-07 09:14:00,50.3,50.3,-100.00,West,264,3.0,6.0,-999,0.00,,,0.00,VWS V14.01,2013-01-07 17:14:00,
2013-01-07 09:19:00,50.7,50.7,-100.00,West,264,2.0,6.0,-999,0.00,,,0.00,VWS V14.01,2013-01-07 17:19:00,
2013-01-07 09:24:00,52.0,52.0,-100.00,West,264,3.0,6.0,-999,0.00,,,0.00,VWS V14.01,2013-01-07 17:24:00,
2013-01-07 09:29:00,52.5,52.5,-100.00,West,263,3.0,6.0,-999,0.00,,,0.00,VWS V14.01,2013-01-07 17:29:00,
2013-01-07 09:34:00,52.4,52.4,-100.00,West,262,3.0,6.0,-999,0.00,,,0.00,VWS V14.01,2013-01-07 17:34:00,
2013-01-07 09:39:00,52.1,52.1,-100.00,West,262,3.0,6.0,-999,0.00,,,0.00,VWS V14.01,2013-01-07 17:39:00,
2013-01-07 09:44:00,51.5,51.5,-100.00,West,262,3.0,6.0,-999,0.00,,,0.00,VWS V14.01,2013-01-07 17:44:00,
2013-01-07 09:49:00,51.3,51.3,-100.00,West,262,4.0,6.0,-999,0.00,,,0.00,VWS V14.01,2013-01-07 17:49:00,
2013-01-07 09:55:00,51.3,51.3,-100.00,SW,222,6.0,8.0,-999,0.00,,,0.00,VWS V14.01,2013-01-07 17:55:00,
2013-01-07 10:00:00,51.8,51.8,-100.00,West,265,4.0,11.0,-999,0.00,,,0.00,VWS V14.01,2013-01-07 18:00:00,
2013-01-07 10:05:00,52.1,52.1,-100.00,WNW,286,2.0,10.0,-999,0.00,,,0.00,VWS V14.01,2013-01-07 18:05:00,
2013-01-07 10:10:00,52.8,52.8,-100.00,WSW,250,6.0,10.0,-999,0.00,,,0.00,VWS V14.01,2013-01-07 18:10:00,
2013-01-07 10:15:00,53.2,53.2,-100.00,SW,226,4.0,10.0,-999,0.00,,,0.00,VWS V14.01,2013-01-07 18:15:00,
2013-01-07 10:20:00,53.4,53.4,-100.00,WSW,243,5.0,13.0,-999,0.00,,,0.00,VWS V14.01,2013-01-07 18:20:00,
2013-01-07 10:25:00,53.5,53.5,-100.00,WSW,246,5.0,13.0,-999,0.00,,,0.00,VWS V14.01,2013-01-07 18:25:00,
2013-01-07 10:30:00,53.6,53.6,-100.00,WSW,248,5.0,13.0,-999,0.00,,,0.00,VWS V14.01,2013-01-07 18:30:00,
2013-01-07 10:35:00,53.8,53.8,-100.00,WSW,248,6.0,9.0,-999,0.00,,,0.00,VWS V14.01,2013-01-07 18:35:00,
2013-01-07 10:40:00,54.0,54.0,-100.00,WSW,243,5.0,12.0,-999,0.00,,,0.00,VWS V14.01,2013-01-07 18:40:00,
2013-01-07 10:45:00,54.6,54.6,-100.00,WSW,243,2.0,12.0,-999,0.00,,,0.00,VWS V14.01,2013-01-07 18:45:00,
2013-01-07 10:50:00,54.6,54.6,-100.00,WSW,243,2.0,12.0,-999,0.00,,,0.00,VWS V14.01,2013-01-07 18:50:00,
2013-01-07 10:55:00,55.0,55.0,-100.00,WSW,243,1.0,12.0,-999,0.00,,,0.00,VWS V14.01,2013-01-07 18:55:00,
2013-01-07 11:00:00,56.1,56.1,-100.00,WSW,243,1.0,2.0,-999,0.00,,,0.00,VWS V14.01,2013-01-07 19:00:00,
2013-01-07 11:05:00,55.7,55.7,-100.00,North,349,1.0,5.0,-999,0.00,,,0.00,VWS V14.01,2013-01-07 19:05:00,
2013-01-07 11:10:00,57.0,57.0,-100.00,ENE,73,2.0,6.0,-999,0.00,,,0.00,VWS V14.01,2013-01-07 19:10:00,
2013-01-07 11:15:00,58.8,58.8,-100.00,NNW,345,2.0,7.0,-999,0.00,,,0.00,VWS V14.01,2013-01-07 19:15:00,
2013-01-07 11:20:00,57.8,57.8,-100.00,NNW,343,3.0,7.0,-999,0.00,,,0.00,VWS V14.01,2013-01-07 19:20:00,
2013-01-07 11:25:00,57.2,57.2,-100.00,NNW,343,2.0,7.0,-999,0.00,,,0.00,VWS V14.01,2013-01-07 19:25:00,
2013-01-07 11:30:00,57.7,57.7,-100.00,NNW,343,2.0,3.0,-999,0.00,,,0.00,VWS V14.01,2013-01-07 19:30:00,
2013-01-07 11:35:00,58.3,58.3,-100.00,SSW,206,2.0,6.0,-999,0.00,,,0.00,VWS V14.01,2013-01-07 19:35:00,
2013-01-07 11:40:00,57.8,57.8,-100.00,SSW,206,4.0,6.0,-999,0.00,,,0.00,VWS V14.01,2013-01-07 19:40:00,
2013-01-07 11:45:00,57.5,57.5,-100.00,NE,55,1.0,6.0,-999,0.00,,,0.00,VWS V14.01,2013-01-07 19:45:00,
2013-01-07 11:50:00,58.4,58.4,-100.00,SSW,202,3.0,6.0,-999,0.00,,,0.00,VWS V14.01,2013-01-07 19:50:00,
2013-01-07 11:55:00,57.4,57.4,-100.00,East,81,2.0,6.0,-999,0.00,,,0.00,VWS V14.01,2013-01-07 19:55:00,
2013-01-07 12:01:00,56.9,56.9,-100.00,NE,36,7.0,7.0,-999,0.00,,,0.00,VWS V14.01,2013-01-07 20:01:00,
2013-01-07 12:06:00,56.5,56.5,-100.00,NE,51,3.0,8.0,-999,0.00,,,0.00,VWS V14.01,2013-01-07 20:06:00,
2013-01-07 12:11:00,56.6,56.6,-100.00,NE,54,2.0,8.0,-999,0.00,,,0.00,VWS V14.01,2013-01-07 20:11:00,
2013-01-07 12:16:00,57.1,57.1,-100.00,NE,54,2.0,8.0,-999,0.00,,,0.00,VWS V14.01,2013-01-07 20:16:00,
2013-01-07 12:21:00,58.0,58.0,-100.00,NE,53,2.0,8.0,-999,0.00,,,0.00,VWS V14.01,2013-01-07 20:21:00,
2013-01-07 12:26:00,58.4,58.4,-100.00,NE,53,1.0,8.0,-999,0.00,,,0.00,VWS V14.01,2013-01-07 20:26:00,
2013-01-07 12:31:00,59.5,59.5,-100.00,NE,53,0.0,1.0,-999,0.00,,,0.00,VWS V14.01,2013-01-07 20:31:00,
2013-01-07 12:36:00,59.5,59.5,-100.00,NE,37,2.0,6.0,-999,0.00,,,0.00,VWS V14.01,2013-01-07 20:36:00,
2013-01-07 12:41:00,58.8,58.8,-100.00,NE,37,3.0,6.0,-999,0.00,,,0.00,VWS V14.01,2013-01-07 20:41:00,
2013-01-07 12:46:00,59.2,59.2,-100.00,NE,37,2.0,6.0,-999,0.00,,,0.00,VWS V14.01,2013-01-07 20:46:00,
2013-01-07 12:51:00,59.8,59.8,-100.00,NE,37,0.0,6.0,-999,0.00,,,0.00,VWS V14.01,2013-01-07 20:51:00,
2013-01-07 12:56:00,59.9,59.9,-100.00,NE,40,2.0,6.0,-999,0.00,,,0.00,VWS V14.01,2013-01-07 20:56:00,
2013-01-07 13:01:00,60.8,60.8,-100.00,WSW,241,1.0,3.0,-999,0.00,,,0.00,VWS V14.01,2013-01-07 21:01:00,
2013-01-07 13:06:00,61.2,61.2,-100.00,South,182,2.0,7.0,-999,0.00,,,0.00,VWS V14.01,2013-01-07 21:06:00,
2013-01-07 13:11:00,62.5,62.5,-100.00,SSW,195,4.0,7.0,-999,0.00,,,0.00,VWS V14.01,2013-01-07 21:11:00,
2013-01-07 13:16:00,61.9,61.9,-100.00,WSW,254,3.0,11.0,-999,0.00,,,0.00,VWS V14.01,2013-01-07 21:16:00,
2013-01-07 13:21:00,63.3,63.3,-100.00,SW,218,2.0,11.0,-999,0.00,,,0.00,VWS V14.01,2013-01-07 21:21:00,
2013-01-07 13:26:00,62.4,62.4,-100.00,NW,313,8.0,11.0,-999,0.00,,,0.00,VWS V14.01,2013-01-07 21:26:00,
2013-01-07 13:31:00,62.6,62.6,-100.00,WSW,246,3.0,7.0,-999,0.00,,,0.00,VWS V14.01,2013-01-07 21:31:00,
2013-01-07 13:36:00,62.2,62.2,-100.00,WSW,252,6.0,10.0,-999,0.00,,,0.00,VWS V14.01,2013-01-07 21:36:00,
2013-01-07 13:41:00,61.6,61.6,-100.00,West,271,4.0,10.0,-999,0.00,,,0.00,VWS V14.01,2013-01-07 21:41:00,
2013-01-07 13:46:00,62.1,62.1,-100.00,SW,236,4.0,10.0,-999,0.00,,,0.00,VWS V14.01,2013-01-07 21:46:00,
2013-01-07 13:51:00,61.4,61.4,-100.00,WSW,246,5.0,14.0,-999,0.00,,,0.00,VWS V14.01,2013-01-07 21:51:00,
2013-01-07 13:56:00,61.8,61.8,-100.00,SSW,209,8.0,15.0,-999,0.00,,,0.00,VWS V14.01,2013-01-07 21:56:00,
2013-01-07 14:01:00,61.7,61.7,-100.00,SW,236,5.0,10.0,-999,0.00,,,0.00,VWS V14.01,2013-01-07 22:01:00,
2013-01-07 14:06:00,61.4,61.4,-100.00,WSW,255,7.0,14.0,-999,0.00,,,0.00,VWS V14.01,2013-01-07 22:06:00,
2013-01-07 14:11:00,61.5,61.5,-100.00,WSW,248,5.0,15.0,-999,0.00,,,0.00,VWS V14.01,2013-01-07 22:11:00,
2013-01-07 14:16:00,61.1,61.1,-100.00,SSW,205,7.0,15.0,-999,0.00,,,0.00,VWS V14.01,2013-01-07 22:16:00,
2013-01-07 14:21:00,60.7,60.7,-100.00,SW,224,9.0,16.0,-999,0.00,,,0.00,VWS V14.01,2013-01-07 22:21:00,
2013-01-07 14:26:00,61.0,61.0,-100.00,SW,224,6.0,16.0,-999,0.00,,,0.00,VWS V14.01,2013-01-07 22:26:00,
2013-01-07 14:31:00,61.2,61.2,-100.00,WSW,243,5.0,9.0,-999,0.00,,,0.00,VWS V14.01,2013-01-07 22:31:00,
2013-01-07 14:36:00,61.0,61.0,-100.00,West,259,4.0,15.0,-999,0.00,,,0.00,VWS V14.01,2013-01-07 22:36:00,
2013-01-07 14:41:00,61.0,61.0,-100.00,WSW,252,4.0,15.0,-999,0.00,,,0.00,VWS V14.01,2013-01-07 22:41:00,
2013-01-07 14:46:00,60.6,60.6,-100.00,WSW,248,7.0,15.0,-999,0.00,,,0.00,VWS V14.01,2013-01-07 22:46:00,
2013-01-07 14:51:00,60.6,60.6,-100.00,WSW,246,8.0,15.0,-999,0.00,,,0.00,VWS V14.01,2013-01-07 22:51:00,
2013-01-07 14:56:00,60.7,60.7,-100.00,SW,236,9.0,15.0,-999,0.00,,,0.00,VWS V14.01,2013-01-07 22:56:00,
2013-01-07 15:01:00,60.7,60.7,-100.00,SW,234,6.0,11.0,-999,0.00,,,0.00,VWS V14.01,2013-01-07 23:01:00,
2013-01-07 15:07:00,60.3,60.3,-100.00,West,260,6.0,17.0,-999,0.00,,,0.00,VWS V14.01,2013-01-07 23:07:00,
2013-01-07 15:12:00,60.5,60.5,-100.00,WSW,237,6.0,17.0,-999,0.00,,,0.00,VWS V14.01,2013-01-07 23:12:00,
2013-01-07 15:17:00,60.4,60.4,-100.00,WSW,242,12.0,17.0,-999,0.00,,,0.00,VWS V14.01,2013-01-07 23:17:00,
2013-01-07 15:22:00,60.1,60.1,-100.00,WSW,240,6.0,17.0,-999,0.00,,,0.00,VWS V14.01,2013-01-07 23:22:00,
2013-01-07 15:27:00,59.9,59.9,-100.00,West,263,6.0,17.0,-999,0.00,,,0.00,VWS V14.01,2013-01-07 23:27:00,
2013-01-07 15:32:00,59.8,59.8,-100.00,West,265,7.0,13.0,-999,0.00,,,0.00,VWS V14.01,2013-01-07 23:32:00,
2013-01-07 15:37:00,59.9,59.9,-100.00,WSW,248,9.0,13.0,-999,0.00,,,0.00,VWS V14.01,2013-01-07 23:37:00,
2013-01-07 15:42:00,59.6,59.6,-100.00,WSW,244,8.0,13.0,-999,0.00,,,0.00,VWS V14.01,2013-01-07 23:42:00,
2013-01-07 15:47:00,59.4,59.4,-100.00,SW,236,6.0,13.0,-999,0.00,,,0.00,VWS V14.01,2013-01-07 23:47:00,
2013-01-07 15:52:00,59.3,59.3,-100.00,SW,227,3.0,13.0,-999,0.00,,,0.00,VWS V14.01,2013-01-07 23:52:00,
2013-01-07 15:57:00,58.8,58.8,-100.00,SW,215,5.0,13.0,-999,0.00,,,0.00,VWS V14.01,2013-01-07 23:57:00,
2013-01-07 16:02:00,58.6,58.6,-100.00,SW,218,7.0,7.0,-999,0.00,,,0.00,VWS V14.01,2013-01-08 00:02:00,
2013-01-07 16:07:00,58.6,58.6,-100.00,SSW,195,7.0,10.0,-999,0.00,,,0.00,VWS V14.01,2013-01-08 00:07:00,
2013-01-07 16:12:00,58.3,58.3,-100.00,SW,215,5.0,10.0,-999,0.00,,,0.00,VWS V14.01,2013-01-08 00:12:00,
2013-01-07 16:17:00,58.2,58.2,-100.00,SW,215,3.0,10.0,-999,0.00,,,0.00,VWS V14.01,2013-01-08 00:17:00,
2013-01-07 16:22:00,58.0,58.0,-100.00,SW,222,6.0,11.0,-999,0.00,,,0.00,VWS V14.01,2013-01-08 00:22:00,
2013-01-07 16:27:00,58.1,58.1,-100.00,SSW,202,5.0,11.0,-999,0.00,,,0.00,VWS V14.01,2013-01-08 00:27:00,
2013-01-07 16:32:00,57.1,57.1,-100.00,SSW,211,5.0,7.0,-999,0.00,,,0.00,VWS V14.01,2013-01-08 00:32:00,
2013-01-07 16:37:00,56.7,56.7,-100.00,SSW,200,7.0,8.0,-999,0.00,,,0.00,VWS V14.01,2013-01-08 00:37:00,
2013-01-07 16:42:00,56.2,56.2,-100.00,WSW,243,4.0,9.0,-999,0.00,,,0.00,VWS V14.01,2013-01-08 00:42:00,
2013-01-07 16:47:00,56.4,56.4,-100.00,WSW,257,4.0,9.0,-999,0.00,,,0.00,VWS V14.01,2013-01-08 00:47:00,
2013-01-07 16:52:00,55.3,55.3,-100.00,SW,218,3.0,9.0,-999,0.00,,,0.00,VWS V14.01,2013-01-08 00:52:00,
2013-01-07 16:57:00,56.3,56.3,-100.00,SW,218,4.0,9.0,-999,0.00,,,0.00,VWS V14.01,2013-01-08 00:57:00,
2013-01-07 17:02:00,55.0,55.0,-100.00,SW,218,4.0,6.0,-999,0.00,,,0.00,VWS V14.01,2013-01-08 01:02:00,
2013-01-07 17:07:00,55.4,55.4,-100.00,SSW,209,3.0,7.0,-999,0.00,,,0.00,VWS V14.01,2013-01-08 01:07:00,
2013-01-07 17:12:00,56.3,56.3,-100.00,WSW,252,3.0,7.0,-999,0.00,,,0.00,VWS V14.01,2013-01-08 01:12:00,
2013-01-07 17:17:00,56.6,56.6,-100.00,WSW,252,4.0,7.0,-999,0.00,,,0.00,VWS V14.01,2013-01-08 01:17:00,
2013-01-07 17:22:00,56.2,56.2,-100.00,WSW,252,5.0,7.0,-999,0.00,,,0.00,VWS V14.01,2013-01-08 01:22:00,
2013-01-07 17:27:00,55.8,55.8,-100.00,SW,227,2.0,8.0,-999,0.00,,,0.00,VWS V14.01,2013-01-08 01:27:00,
2013-01-07 17:32:00,55.0,55.0,-100.00,SW,227,2.0,4.0,-999,0.00,,,0.00,VWS V14.01,2013-01-08 01:32:00,
2013-01-07 17:37:00,55.7,55.7,-100.00,SW,227,3.0,4.0,-999,0.00,,,0.00,VWS V14.01,2013-01-08 01:37:00,
2013-01-07 17:42:00,55.8,55.8,-100.00,SW,228,2.0,6.0,-999,0.00,,,0.00,VWS V14.01,2013-01-08 01:42:00,
2013-01-07 17:47:00,56.3,56.3,-100.00,SW,227,4.0,6.0,-999,0.00,,,0.00,VWS V14.01,2013-01-08 01:47:00,
2013-01-07 17:52:00,55.8,55.8,-100.00,WSW,242,7.0,7.0,-999,0.00,,,0.00,VWS V14.01,2013-01-08 01:52:00,
2013-01-07 17:57:00,54.9,54.9,-100.00,South,181,6.0,8.0,-999,0.00,,,0.00,VWS V14.01,2013-01-08 01:57:00,
2013-01-07 18:02:00,55.7,55.7,-100.00,West,262,6.0,7.0,-999,0.00,,,0.00,VWS V14.01,2013-01-08 02:02:00,
2013-01-07 18:08:00,55.5,55.5,-100.00,West,269,5.0,8.0,-999,0.00,,,0.00,VWS V14.01,2013-01-08 02:08:00,
2013-01-07 18:13:00,55.2,55.2,-100.00,SSW,195,7.0,8.0,-999,0.00,,,0.00,VWS V14.01,2013-01-08 02:13:00,
2013-01-07 18:18:00,55.2,55.2,-100.00,SSW,196,4.0,8.0,-999,0.00,,,0.00,VWS V14.01,2013-01-08 02:18:00,
2013-01-07 18:23:00,55.4,55.4,-100.00,SSW,205,6.0,10.0,-999,0.00,,,0.00,VWS V14.01,2013-01-08 02:23:00,
2013-01-07 18:28:00,55.2,55.2,-100.00,SW,219,2.0,10.0,-999,0.00,,,0.00,VWS V14.01,2013-01-08 02:28:00,
2013-01-07 18:33:00,54.9,54.9,-100.00,WSW,244,6.0,9.0,-999,0.00,,,0.00,VWS V14.01,2013-01-08 02:33:00,
2013-01-07 18:38:00,55.0,55.0,-100.00,WNW,282,3.0,9.0,-999,0.00,,,0.00,VWS V14.01,2013-01-08 02:38:00,
2013-01-07 18:43:00,55.3,55.3,-100.00,WSW,239,6.0,9.0,-999,0.00,,,0.00,VWS V14.01,2013-01-08 02:43:00,
2013-01-07 18:48:00,55.0,55.0,-100.00,SW,235,5.0,9.0,-999,0.00,,,0.00,VWS V14.01,2013-01-08 02:48:00,
2013-01-07 18:53:00,54.5,54.5,-100.00,SW,235,3.0,9.0,-999,0.00,,,0.00,VWS V14.01,2013-01-08 02:53:00,
2013-01-07 18:58:00,53.6,53.6,-100.00,SW,232,3.0,9.0,-999,0.00,,,0.00,VWS V14.01,2013-01-08 02:58:00,
2013-01-07 19:03:00,53.9,53.9,-100.00,SW,233,5.0,6.0,-999,0.00,,,0.00,VWS V14.01,2013-01-08 03:03:00,
2013-01-07 19:08:00,54.5,54.5,-100.00,SW,232,5.0,7.0,-999,0.00,,,0.00,VWS V14.01,2013-01-08 03:08:00,
2013-01-07 19:13:00,54.5,54.5,-100.00,SSW,200,5.0,7.0,-999,0.00,,,0.00,VWS V14.01,2013-01-08 03:13:00,
2013-01-07 19:18:00,54.3,54.3,-100.00,WSW,238,6.0,8.0,-999,0.00,,,0.00,VWS V14.01,2013-01-08 03:18:00,
2013-01-07 19:23:00,54.3,54.3,-100.00,West,265,4.0,8.0,-999,0.00,,,0.00,VWS V14.01,2013-01-08 03:23:00,
2013-01-07 19:28:00,54.1,54.1,-100.00,SSW,196,7.0,8.0,-999,0.00,,,0.00,VWS V14.01,2013-01-08 03:28:00,
2013-01-07 19:33:00,54.3,54.3,-100.00,SSW,192,8.0,9.0,-999,0.00,,,0.00,VWS V14.01,2013-01-08 03:33:00,
2013-01-07 19:38:00,54.4,54.4,-100.00,SW,225,5.0,9.0,-999,0.00,,,0.00,VWS V14.01,2013-01-08 03:38:00,
2013-01-07 19:43:00,54.2,54.2,-100.00,SSW,212,7.0,13.0,-999,0.00,,,0.00,VWS V14.01,2013-01-08 03:43:00,
2013-01-07 19:49:00,54.2,54.2,-100.00,SW,219,7.0,13.0,-999,0.00,,,0.00,VWS V14.01,2013-01-08 03:49:00,
2013-01-07 19:54:00,54.1,54.1,-100.00,SW,232,4.0,13.0,-999,0.00,,,0.00,VWS V14.01,2013-01-08 03:54:00,
2013-01-07 19:59:00,53.5,53.5,-100.00,SSW,193,7.0,13.0,-999,0.00,,,0.00,VWS V14.01,2013-01-08 03:59:00,
2013-01-07 20:04:00,53.7,53.7,-100.00,SSW,213,11.0,13.0,-999,0.00,,,0.00,VWS V14.01,2013-01-08 04:04:00,
2013-01-07 20:09:00,54.1,54.1,-100.00,SSW,213,9.0,14.0,-999,0.00,,,0.00,VWS V14.01,2013-01-08 04:09:00,
2013-01-07 20:14:00,53.7,53.7,-100.00,SW,215,6.0,14.0,-999,0.00,,,0.00,VWS V14.01,2013-01-08 04:14:00,
2013-01-07 20:19:00,53.7,53.7,-100.00,SSW,198,8.0,14.0,-999,0.00,,,0.00,VWS V14.01,2013-01-08 04:19:00,
2013-01-07 20:24:00,53.4,53.4,-100.00,SSW,198,6.0,14.0,-999,0.00,,,0.00,VWS V14.01,2013-01-08 04:24:00,
2013-01-07 20:29:00,53.6,53.6,-100.00,SW,224,8.0,14.0,-999,0.00,,,0.00,VWS V14.01,2013-01-08 04:29:00,
2013-01-07 20:34:00,53.6,53.6,-100.00,SSW,210,8.0,13.0,-999,0.00,,,0.00,VWS V14.01,2013-01-08 04:34:00,
2013-01-07 20:39:00,53.5,53.5,-100.00,SW,223,6.0,13.0,-999,0.00,,,0.00,VWS V14.01,2013-01-08 04:39:00,
2013-01-07 20:44:00,53.3,53.3,-100.00,SW,216,8.0,13.0,-999,0.00,,,0.00,VWS V14.01,2013-01-08 04:44:00,
2013-01-07 20:49:00,53.5,53.5,-100.00,SSW,206,7.0,13.0,-999,0.00,,,0.00,VWS V14.01,2013-01-08 04:49:00,
2013-01-07 20:54:00,53.4,53.4,-100.00,SW,230,4.0,13.0,-999,0.00,,,0.00,VWS V14.01,2013-01-08 04:54:00,
2013-01-07 20:59:00,53.9,53.9,-100.00,SSW,203,9.0,13.0,-999,0.00,,,0.00,VWS V14.01,2013-01-08 04:59:00,
2013-01-07 21:01:00,53.7,53.7,-100.00,SW,221,6.0,9.0,-999,0.00,,,0.00,VWS V14.01,2013-01-08 05:01:00,
2013-01-07 21:02:00,53.6,53.6,-100.00,SW,214,6.0,9.0,-999,0.00,,,0.00,VWS V14.01,2013-01-08 05:02:00,
2013-01-07 21:03:00,53.7,53.7,-100.00,SSW,206,5.0,9.0,-999,0.00,,,0.00,VWS V14.01,2013-01-08 05:03:00,
2013-01-07 21:09:00,53.5,53.5,-100.00,SW,216,3.0,11.0,-999,0.00,,,0.00,VWS V14.01,2013-01-08 05:09:00,
2013-01-07 21:12:00,53.2,53.2,-100.00,SSE,168,3.0,11.0,-999,0.00,,,0.00,VWS V14.01,2013-01-08 05:12:00,
2013-01-07 21:17:00,53.3,53.3,-100.00,WSW,247,3.0,11.0,-999,0.00,,,0.00,VWS V14.01,2013-01-08 05:17:00,
2013-01-07 21:22:00,53.0,53.0,-100.00,WSW,247,1.0,11.0,-999,0.00,,,0.00,VWS V14.01,2013-01-08 05:22:00,
2013-01-07 21:27:00,52.8,52.8,-100.00,WSW,247,3.0,11.0,-999,0.00,,,0.00,VWS V14.01,2013-01-08 05:27:00,
2013-01-07 21:32:00,52.6,52.6,-100.00,WSW,247,2.0,4.0,-999,0.00,,,0.00,VWS V14.01,2013-01-08 05:32:00,
2013-01-07 21:37:00,52.7,52.7,-100.00,WSW,247,4.0,5.0,-999,0.00,,,0.00,VWS V14.01,2013-01-08 05:37:00,
2013-01-07 21:42:00,53.5,53.5,-100.00,WSW,247,1.0,8.0,-999,0.00,,,0.00,VWS V14.01,2013-01-08 05:42:00,
2013-01-07 21:47:00,52.8,52.8,-100.00,WSW,247,1.0,8.0,-999,0.00,,,0.00,VWS V14.01,2013-01-08 05:47:00,
2013-01-07 21:52:00,52.2,52.2,-100.00,WSW,247,3.0,8.0,-999,0.00,,,0.00,VWS V14.01,2013-01-08 05:52:00,
2013-01-07 21:57:00,51.4,51.4,-100.00,WSW,247,3.0,8.0,-999,0.00,,,0.00,VWS V14.01,2013-01-08 05:57:00,
2013-01-07 22:02:00,51.2,51.2,-100.00,WSW,247,2.0,3.0,-999,0.00,,,0.00,VWS V14.01,2013-01-08 06:02:00,
2013-01-07 22:07:00,50.8,50.8,-100.00,WSW,247,3.0,5.0,-999,0.00,,,0.00,VWS V14.01,2013-01-08 06:07:00,
2013-01-07 22:12:00,51.2,51.2,-100.00,WSW,247,4.0,5.0,-999,0.00,,,0.00,VWS V14.01,2013-01-08 06:12:00,
2013-01-07 22:17:00,51.3,51.3,-100.00,WSW,247,4.0,6.0,-999,0.00,,,0.00,VWS V14.01,2013-01-08 06:17:00,
2013-01-07 22:22:00,51.5,51.5,-100.00,WSW,247,3.0,7.0,-999,0.00,,,0.00,VWS V14.01,2013-01-08 06:22:00,
2013-01-07 22:27:00,50.7,50.7,-100.00,WSW,245,8.0,8.0,-999,0.00,,,0.00,VWS V14.01,2013-01-08 06:27:00,
2013-01-07 22:32:00,50.6,50.6,-100.00,SW,228,3.0,7.0,-999,0.00,,,0.00,VWS V14.01,2013-01-08 06:32:00,
2013-01-07 22:37:00,51.3,51.3,-100.00,SW,228,4.0,7.0,-999,0.00,,,0.00,VWS V14.01,2013-01-08 06:37:00,
2013-01-07 22:42:00,51.5,51.5,-100.00,SW,228,5.0,7.0,-999,0.00,,,0.00,VWS V14.01,2013-01-08 06:42:00,
2013-01-07 22:47:00,52.1,52.1,-100.00,WSW,241,10.0,10.0,-999,0.00,,,0.00,VWS V14.01,2013-01-08 06:47:00,
2013-01-07 22:52:00,52.2,52.2,-100.00,WNW,287,9.0,11.0,-999,0.00,,,0.00,VWS V14.01,2013-01-08 06:52:00,
2013-01-07 22:57:00,51.9,51.9,-100.00,WSW,238,5.0,11.0,-999,0.00,,,0.00,VWS V14.01,2013-01-08 06:57:00,
2013-01-07 23:02:00,51.8,51.8,-100.00,SSW,202,6.0,11.0,-999,0.00,,,0.00,VWS V14.01,2013-01-08 07:02:00,
2013-01-07 23:07:00,52.0,52.0,-100.00,SW,225,5.0,11.0,-999,0.00,,,0.00,VWS V14.01,2013-01-08 07:07:00,
2013-01-07 23:12:00,52.3,52.3,-100.00,SSW,203,6.0,11.0,-999,0.00,,,0.00,VWS V14.01,2013-01-08 07:12:00,
2013-01-07 23:17:00,52.0,52.0,-100.00,South,180,6.0,11.0,-999,0.00,,,0.00,VWS V14.01,2013-01-08 07:17:00,
2013-01-07 23:22:00,51.7,51.7,-100.00,WSW,245,4.0,11.0,-999,0.00,,,0.00,VWS V14.01,2013-01-08 07:22:00,
2013-01-07 23:27:00,51.6,51.6,-100.00,WSW,247,4.0,11.0,-999,0.00,,,0.00,VWS V14.01,2013-01-08 07:27:00,
2013-01-07 23:32:00,52.0,52.0,-100.00,WSW,239,5.0,8.0,-999,0.00,,,0.00,VWS V14.01,2013-01-08 07:32:00,
2013-01-07 23:38:00,51.7,51.7,-100.00,WSW,238,5.0,10.0,-999,0.00,,,0.00,VWS V14.01,2013-01-08 07:38:00,
2013-01-07 23:43:00,51.8,51.8,-100.00,SSW,207,6.0,14.0,-999,0.00,,,0.00,VWS V14.01,2013-01-08 07:43:00,
2013-01-07 23:48:00,51.7,51.7,-100.00,SW,228,6.0,14.0,-999,0.00,,,0.00,VWS V14.01,2013-01-08 07:48:00,
2013-01-07 23:53:00,51.1,51.1,-100.00,SW,231,6.0,14.0,-999,0.00,,,0.00,VWS V14.01,2013-01-08 07:53:00,
2013-01-07 23:58:00,51.4,51.4,-100.00,SSW,212,6.0,14.0,-999,0.00,,,0.00,VWS V14.01,2013-01-08 07:58:00,